Flag for Germany Weather past 2 weeks in Crailsheim, Baden-Württemberg, Germany

Now
55 °F

Passing clouds.


Feels Like: 55 °F
Forecast: 47 / 67 °F
Wind: 5 mph from Southeast

Location: Niederstetten

Current Time: Apr 27, 2015 at 12:01:59 AM

Latest Report: Apr 26, 2015 at 10:20 PM


Visibility: N/A

Pressure: 29.68 "Hg

Humidity: 72%

Dew point: 46 °F

Location of CrailsheimLocation

Historic Weather in Crailsheim — Graph

°F

Crailsheim temperature yesterday

Maximum temperature yesterday: 66 °F (at 3:20 PM)
Minimum temperature yesterday: 50 °F (at 6:20 AM)
Average temperature yesterday: 57 °F

Past Weeks' High & Low Weather Summary

 TemperatureHumidityPressure
High72 °F (Apr 15, 3:20 PM)100% (Apr 12, 8:20 AM)30.42 "Hg (Apr 12, 8:20 AM)
Low30 °F (Apr 23, 6:20 AM)23% (Apr 21, 5:20 PM)29.68 "Hg (Apr 26, 7:20 PM)
Average52 °F57%30.14 "Hg
* Reported Apr 11 10:20 PM — Apr 26 10:20 PM, Crailsheim, Weather by CustomWeather, © 2015

Note: Actual official high and low records may vary slightly from our data, if they occured in-between our weather recording intervals... More about our weather records

Advertising

Crailsheim weather history for previous 24 hours

 ConditionsComfort  
Time TempWeatherWind HumidityBarometerVisibility
10:20 PM
Sun, Apr 26
55 °FPassing clouds.5 mph72%29.68 "HgN/A
9:20 PM57 °FBroken clouds.5 mph72%29.68 "HgN/A
8:20 PM59 °FBroken clouds.3 mph68%29.68 "HgN/A
7:20 PM63 °FBroken clouds.8 mph56%29.68 "HgN/A
6:20 PM66 °FBroken clouds.6 mph46%29.71 "HgN/A
5:20 PM66 °FBroken clouds.5 mph49%29.71 "HgN/A
4:20 PM66 °FBroken clouds.6 mph46%29.74 "HgN/A
3:20 PM66 °FBroken clouds.8 mph49%29.77 "HgN/A
2:20 PM63 °FBroken clouds.9 mph56%29.77 "HgN/A
1:20 PM63 °FBroken clouds.10 mph56%29.80 "HgN/A
12:20 PM61 °FScattered clouds.7 mph63%29.83 "HgN/A
11:20 AM59 °FScattered clouds.10 mph68%29.83 "HgN/A
10:20 AM59 °FScattered clouds.10 mph72%29.83 "HgN/A
9:20 AM55 °FPassing clouds.10 mph82%29.83 "HgN/A
8:20 AM54 °FScattered clouds.7 mph88%29.83 "HgN/A
7:20 AM50 °FScattered clouds.5 mph100%29.83 "Hg5 mi
6:20 AM50 °FPartly cloudy.6 mph100%29.83 "Hg6 mi
5:20 AM52 °FMostly cloudy.6 mph94%29.83 "Hg6 mi
4:20 AM52 °FPassing clouds.9 mph94%29.83 "Hg4 mi
3:20 AM52 °FPassing clouds.12 mph94%29.83 "Hg4 mi
2:20 AM52 °FPassing clouds.10 mph100%29.86 "Hg4 mi
1:20 AM52 °FLight rain. Mostly cloudy.7 mph94%29.86 "Hg4 mi
12:20 AM52 °FLight rain. Fog.10 mph100%29.86 "Hg3 mi
12:01 AM54 °FLight rain. Fog.8 mph94%29.86 "Hg3 mi
Weather by CustomWeather, © 2015

See weather overviewHow to use our weather pages